Probability
0 0 0 0 0 0 0 0 0 0 0 0 0 0 0 0 0 0 0 0 0 0 0 0 0 0 0 0 0 0 0 1 2 2 2 2 2 2 2 1 0 0 0 0
0 0 0 0 0 0 0 0 0 0 0 0 0 0 0 0 0 0 0 0 0 0 0 0 0 0 0 0 0 0 0 1 3 4 4 3 3 2 2 2 1 0 0 0
0 0 0 0 0 0 0 0 0 0 0 0 0 0 0 0 0 0 0 0 0 0 0 0 0 0 0 0 0 0 0 0 2 4 6 5 4 3 2 2 1 0 0 0
0 0 0 0 0 0 0 0 0 0 0 0 0 0 0 0 0 0 0 0 0 0 0 0 0 0 0 0 0 0 0 0 0 2 5 8 7 4 2 1 1 0 0 0
0 0 0 0 0 0 0 0 0 0 0 0 0 0 0 0 0 0 0 0 0 0 0 0 0 0 0 0 0 0 0 0 0 1 4 8 8 5 2 0 0 0 0 0
0 0 0 0 0 0 0 0 0 0 0 0 0 0 0 0 0 0 0 0 0 0 0 0 0 0 0 0 0 0 0 0 0 0 2 4 4 3 1 0 0 0 0 0
0 0 0 0 0 0 0 0 0 0 0 0 0 0 0 0 0 0 0 0 0 0 0 0 0 0 0 0 0 0 0 0 0 0 0 1 1 1 0 0 0 0 0 0
0 0 0 0 0 0 0 0 0 0 0 0 0 0 0 0 0 0 0 0 0 0 0 0 0 0 0 0 0 0 0 0 0 0 0 0 0 0 0 0 0 0 0 0
0 0 0 0 0 0 0 0 0 0 0 0 0 0 0 0 0 0 0 0 0 0 0 0 0 0 0 0 0 0 0 0 0 0 0 0 0 0 0 0 0 0 0 0
0 0 0 0 0 0 0 0 0 0 0 0 0 0 0 0 0 0 0 0 0 0 0 0 0 0 0 0 0 0 0 0 0 0 0 0 0 0 0 0 0 0 0 0
0 0 0 0 0 0 0 0 0 0 0 0 0 0 0 0 0 0 0 0 0 0 0 0 0 0 0 0 0 0 0 0 0 0 0 0 0 0 0 0 0 0 0 0
0 0 0 0 0 0 0 0 0 0 0 0 0 0 0 0 0 0 0 0 0 0 0 0 0 0 0 0 0 0 0 0 0 0 0 0 0 0 0 0 0 0 0 0
0 0 0 0 0 0 0 0 0 0 0 0 0 0 0 0 0 0 0 0 0 0 0 0 0 0 0 0 0 0 0 0 0 0 0 0 0 0 0 0 0 0 0 0
0 0 0 0 0 0 0 0 0 0 0 0 0 0 0 0 0 0 0 0 0 0 0 0 0 0 0 0 0 0 0 0 0 0 0 0 0 0 0 0 0 0 0 0
0 0 0 0 0 0 0 0 0 0 0 0 0 0 0 0 0 0 0 0 0 0 0 0 0 0 0 0 0 0 0 0 0 0 0 0 0 0 0 0 0 0 0 0
0 0 0 0 0 0 0 0 0 0 0 0 0 0 0 0 0 0 0 0 0 0 0 0 0 0 0 0 0 0 0 0 0 0 0 0 0 0 0 0 0 0 0 0
0 0 0 0 0 0 0 0 0 0 0 0 0 0 0 0 0 0 0 0 0 0 0 0 0 0 0 0 0 0 0 0 0 0 0 0 0 0 0 0 0 0 0 0
0 0 0 0 0 0 0 0 0 0 0 0 0 0 0 0 0 0 0 0 0 0 0 0 0 0 0 0 0 0 0 0 0 0 0 0 0 0 0 0 0 0 0 0
0 0 0 0 0 0 0 0 0 0 0 0 0 0 0 0 0 0 0 0 0 0 0 0 0 0 0 0 0 0 0 0 0 0 0 0 0 0 0 0 0 0 0 0
0 0 0 0 0 0 0 0 0 0 0 0 0 0 0 0 0 0 0 0 0 0 0 0 0 0 0 0 0 0 0 0 0 0 0 0 0 0 0 0 0 0 0 0
0 0 0 0 0 0 0 0 0 0 0 0 0 0 0 0 0 0 0 0 0 0 0 0 0 0 0 0 0 0 0 0 0 0 0 0 0 0 0 0 0 0 0 0
0 0 0 0 0 0 0 0 0 0 0 0 0 0 0 0 0 0 0 0 0 0 0 0 0 0 0 0 0 0 0 0 0 0 0 0 0 0 0 0 0 0 0 0
0 0 0 0 0 0 0 0 0 0 0 0 0 0 0 0 0 0 0 0 0 0 0 0 0 0 0 0 0 0 0 0 0 0 0 0 0 0 0 0 0 0 0 0
0 0 0 0 0 0 0 0 0 0 0 0 0 0 0 0 0 0 0 0 0 0 0 0 0 0 0 0 0 0 0 0 0 0 0 0 0 0 0 0 0 0 0 0
0 0 0 0 0 0 0 0 0 0 0 0 0 0 0 0 0 0 0 0 0 0 0 0 0 0 0 0 0 0 0 0 0 0 0 0 0 0 0 0 0 0 0 0
0 0 0 0 0 0 0 0 0 0 0 0 0 0 0 0 0 0 0 0 0 0 0 0 0 0 0 0 0 0 0 0 0 0 0 0 0 0 0 0 0 0 0 0
Wind_Speed
2 4 6 9 7 5 7 6 4 3 1 4 6 8 11 7 5 8 9 9 9 10 8 5 6 6 7 8 9 11 13 13 11 10 10 10 10 8 8 8 10 11 11 12
4 5 6 5 5 6 6 5 3 0 1 2 3 9 9 7 8 9 9 10 10 8 7 5 4 3 5 7 9 10 12 11 13 11 9 6 6 6 7 7 9 12 12 12
8 4 7 7 5 6 4 6 5 3 1 2 3 9 7 7 4 6 8 9 9 8 9 5 3 2 2 4 6 8 10 10 11 10 5 4 3 3 5 7 8 11 12 13
6 4 6 6 7 9 6 5 5 4 2 3 1 6 9 6 8 8 8 6 6 5 5 3 2 1 1 3 3 4 5 6 7 8 8 9 9 9 8 6 7 8 11 12
8 7 6 7 8 9 5 4 5 3 3 1 1 3 11 4 6 10 8 5 4 3 1 1 1 1 2 2 1 1 2 3 4 6 8 9 9 7 3 3 6 7 8 10
2 4 5 7 4 7 8 8 7 6 4 4 6 6 11 6 9 7 4 2 3 2 2 2 2 3 4 4 4 3 3 3 2 3 5 6 7 5 4 4 5 5 4 5
2 2 2 5 8 3 6 8 3 1 1 8 2 5 13 8 7 5 5 4 2 1 1 2 3 4 4 5 5 4 5 4 3 2 2 2 3 3 4 4 4 4 3 4
9 6 8 7 8 10 7 10 10 9 7 5 3 10 11 6 4 5 4 3 1 1 1 2 2 3 4 4 5 5 5 4 4 3 2 1 1 1 1 2 2 3 3 4
12 8 2 5 4 13 9 6 7 8 3 2 7 9 11 4 4 3 3 2 2 1 2 2 3 3 3 4 4 4 4 4 4 3 3 3 3 2 1 1 0 1 1 1
9 7 2 3 4 3 7 10 6 7 7 6 7 7 7 5 7 5 4 4 3 2 2 3 3 3 3 3 3 4 4 4 3 3 3 2 2 2 2 2 2 1 1 1
6 8 3 3 9 11 7 5 6 6 7 8 6 11 8 10 8 7 6 4 4 4 3 2 2 3 4 4 4 5 4 4 4 3 3 3 3 2 2 2 2 2 1 1
6 7 5 7 4 3 6 10 11 9 7 6 5 11 3 6 5 6 6 5 4 4 3 3 3 3 4 4 5 5 5 5 4 3 3 3 3 3 3 2 2 2 2 2
9 8 5 0 2 2 4 5 6 5 6 7 8 11 2 2 4 5 6 5 5 4 4 3 3 4 4 4 4 4 5 4 4 4 3 4 4 4 4 3 3 3 2 2
7 6 10 15 9 9 7 8 8 8 7 10 15 12 4 5 6 6 6 6 6 5 5 4 3 3 3 3 3 4 4 4 4 4 4 4 4 4 4 3 3 3 3 3
5 6 5 4 4 7 8 10 13 15 16 14 14 14 12 12 12 10 8 7 7 6 5 4 4 3 3 3 3 4 4 4 4 4 4 4 4 4 4 4 4 4 3 3
5 5 4 5 5 4 6 10 15 17 15 14 10 12 6 8 6 6 8 9 8 7 6 5 4 3 3 3 3 3 4 4 3 4 4 4 4 4 4 4 4 4 4 3
6 6 6 6 5 3 14 16 15 12 10 11 18 16 6 7 10 12 12 11 10 9 7 6 4 3 3 2 2 3 3 3 3 4 4 4 4 4 4 4 4 4 4 4
8 7 4 4 6 13 12 5 12 14 13 13 9 6 11 12 9 6 7 10 9 8 7 5 4 3 3 2 2 2 2 3 4 4 4 5 5 5 5 5 5 5 4 4
8 9 5 5 7 9 8 4 9 11 13 13 13 9 7 6 5 0 2 6 7 7 6 5 4 3 3 2 1 1 2 2 3 4 5 5 5 5 6 6 5 4 4 4
6 7 6 6 6 11 8 4 5 6 9 7 11 12 10 11 8 7 6 6 7 6 5 5 4 3 3 2 1 2 3 3 4 5 5 5 5 5 5 6 5 4 4 5
10 8 10 7 7 10 6 3 8 8 10 3 7 9 11 11 6 8 10 7 7 6 5 5 4 3 2 2 2 2 3 4 4 5 5 5 5 5 5 5 4 4 4 5
11 9 9 7 8 12 5 8 11 7 2 3 4 5 7 6 8 10 9 8 7 6 5 4 4 3 3 3 3 3 3 4 5 5 6 6 6 5 4 5 5 4 4 5
8 9 7 10 9 2 6 5 2 4 4 4 5 6 10 9 8 8 7 7 6 5 4 3 3 3 3 4 3 3 4 5 6 6 6 6 6 5 4 4 5 5 4 4
4 1 4 4 5 2 2 1 1 3 4 4 6 8 9 9 9 8 7 6 5 4 3 2 3 2 3 3 4 3 5 6 5 6 6 6 6 6 5 4 4 4 4 5
7 7 5 5 3 1 2 3 3 3 5 7 6 6 8 10 8 7 6 5 4 3 3 3 3 2 2 3 4 4 5 5 5 6 6 6 5 6 6 5 5 6 6 6
6 9 10 8 8 7 6 5 6 7 7 8 8 6 5 7 8 7 5 4 4 3 3 3 3 2 3 3 3 4 4 4 4 6 6 5 5 5 5 6 7 9 10 12
Wind_Direction
87 116 182 192 179 163 158 159 189 226 200 179 232 262 275 285 283 274 270 262 256 254 259 256 243 230 215 209 206 207 206 206 199 200 203 204 206 201 200 199 199 197 196 192
91 220 200 156 134 117 132 150 181 269 60 177 273 274 271 266 249 246 254 262 261 267 276 269 261 238 216 213 212 211 211 204 202 207 205 203 199 198 200 198 200 199 198 195
171 212 154 138 148 151 163 168 181 190 71 47 338 301 290 285 272 271 257 255 262 257 263 273 269 251 230 225 219 214 212 206 204 201 184 170 172 177 192 200 204 203 201 199
198 165 138 150 173 154 209 205 169 154 129 284 8 288 287 286 306 287 276 274 276 271 257 266 289 308 271 257 243 214 206 201 197 189 191 193 202 211 209 202 204 200 201 202
212 168 155 181 189 160 178 134 131 130 146 291 279 240 278 299 278 269 270 286 299 294 262 298 12 16 17 5 26 115 151 169 178 187 198 204 215 221 205 192 202 204 203 205
190 184 181 181 140 143 129 85 65 55 80 261 212 194 269 232 220 244 264 304 321 354 24 40 40 52 43 38 46 61 91 90 111 163 191 205 215 211 199 199 208 210 207 207
172 215 188 130 102 106 127 108 82 358 284 247 202 217 250 239 234 241 258 279 307 357 34 39 46 49 48 47 47 55 73 66 60 92 137 189 209 204 208 207 213 211 209 213
168 217 202 184 158 161 180 152 164 187 212 258 227 234 253 253 265 263 259 256 273 38 84 77 63 63 59 58 55 59 68 63 53 60 60 57 85 166 215 215 213 216 219 220
176 210 183 183 167 143 157 194 155 126 120 257 252 266 294 266 258 238 213 181 179 136 105 89 71 66 62 61 56 61 69 64 53 52 52 45 41 40 16 358 287 250 247 234
151 177 181 156 99 2 156 146 125 147 167 227 264 248 238 218 217 207 195 185 174 133 110 90 69 62 56 55 54 56 59 60 51 44 43 47 39 31 23 22 0 331 303 275
145 143 142 155 190 177 136 158 157 154 167 174 242 259 222 207 198 189 193 183 166 152 132 105 79 61 60 55 54 55 49 48 42 35 31 38 31 25 28 20 345 319 302 283
159 135 172 222 230 205 186 179 158 170 209 195 214 260 246 203 195 177 180 175 161 142 130 114 96 76 62 53 47 47 42 39 28 25 32 31 22 18 17 358 338 329 313 299
151 142 136 343 243 203 217 208 190 151 148 179 207 255 326 141 166 178 173 171 157 145 132 111 93 79 66 53 45 43 39 30 20 26 33 29 18 10 358 343 335 333 321 311
148 158 186 202 197 171 190 201 186 167 192 217 226 238 209 187 183 186 182 171 160 153 140 125 108 90 75 63 53 47 37 26 23 30 34 26 9 355 342 340 340 335 325 316
151 191 207 211 162 166 190 195 193 203 212 217 231 227 218 197 195 190 179 167 159 156 150 144 132 109 84 67 51 44 35 23 20 30 30 12 356 351 350 348 340 334 329 317
155 184 180 222 195 188 228 221 208 215 223 231 245 245 217 189 178 174 180 174 174 171 163 149 135 120 95 71 53 42 32 19 21 32 18 359 0 359 353 343 335 331 327 321
164 160 174 220 169 154 242 222 208 214 211 203 231 238 175 185 193 194 191 184 179 172 163 153 143 123 99 76 56 37 16 13 27 28 15 6 1 354 344 336 335 330 322 318
165 165 175 175 163 222 242 192 196 213 225 214 224 207 186 194 190 190 183 175 170 162 154 143 131 118 99 71 47 25 17 21 23 20 11 4 357 347 340 338 332 323 315 311
173 168 172 184 213 257 281 216 179 195 238 219 219 211 187 136 104 256 180 162 156 147 139 134 128 118 101 72 45 32 30 26 25 12 360 352 345 336 332 328 321 315 311 306
171 162 170 179 195 230 243 203 173 141 258 227 200 198 175 148 186 213 164 133 122 118 120 122 114 105 91 55 48 45 24 20 11 353 340 333 331 324 316 309 305 302 299 294
179 185 197 195 216 253 245 172 130 170 238 218 186 180 170 183 198 141 132 123 122 118 116 113 108 97 73 46 47 32 18 8 350 339 331 329 325 316 305 303 299 301 300 300
180 184 193 182 207 241 186 153 181 204 139 142 150 152 147 129 111 121 126 127 125 118 111 110 104 86 62 46 40 15 3 354 348 338 329 323 318 313 309 304 302 301 299 297
197 188 181 192 214 232 174 190 198 143 155 164 148 138 131 128 130 129 128 128 123 120 113 101 98 76 55 43 37 4 350 352 344 333 323 317 314 310 306 301 301 302 295 289
241 176 161 215 247 234 220 217 170 168 163 151 141 138 137 135 137 132 131 127 121 112 105 94 85 57 30 32 32 12 351 349 338 324 318 316 315 312 307 296 284 282 282 281
191 168 176 217 230 136 257 223 184 142 125 121 120 128 136 133 135 137 137 134 126 107 87 76 69 44 11 12 9 4 359 350 332 316 311 311 306 302 302 293 274 275 263 253
185 174 177 208 196 182 204 193 165 152 152 148 137 125 121 132 137 134 132 121 107 91 70 63 50 22 354 351 341 349 352 344 328 318 315 310 305 300 296 297 297 283 279 281